When you browse on this site, cookies collect data to enhance your experience and personalize the content and advertising you see.
Visit our Privacy Policy to learn more. By continuing to use the site, you agree to this use of cookies and data.
  • In Schweiz
  • Länderverzeichnis
  • Für 7 Tage
  • Wassertemperatur
  • Satellitenkarten
  • Wetterkarte
  • Widgets
  • user-avatar
    Anmelden

    Stündliche Wetter Guangzhou

    Heute, 21 März, Donnerstag

    Zeit Temperatur Niederschläge Wind Luftdruck Luftfeuchtigkeit
    00:00 +26°C° 0 mm 3 m/S 758 mmHg 78%
    01:00 +26°C° 0 mm 3 m/S 758 mmHg 80%
    02:00 +26°C° 0 mm 2 m/S 758 mmHg 80%
    03:00 +26°C° 0 mm 3 m/S 758 mmHg 80%
    04:00 +26°C° 0 mm 3 m/S 758 mmHg 80%
    05:00 +26°C° 0 mm 3 m/S 757 mmHg 80%
    06:00 +26°C° 0 mm 3 m/S 758 mmHg 79%
    07:00 +26°C° 0 mm 3 m/S 758 mmHg 78%
    08:00 +26°C° 0 mm 2 m/S 758 mmHg 76%
    09:00 +27°C° 0 mm 3 m/S 759 mmHg 74%
    10:00 +27°C° 0 mm 3 m/S 759 mmHg 71%
    11:00 +28°C° 0 mm 3 m/S 759 mmHg 69%
    12:00 +29°C° 0 mm 3 m/S 758 mmHg 64%
    13:00 +30°C° 0 mm 4 m/S 758 mmHg 60%
    14:00 +30°C° 0 mm 3 m/S 757 mmHg 62%
    15:00 +31°C° 0 mm 3 m/S 757 mmHg 59%
    16:00 +32°C° 0 mm 4 m/S 756 mmHg 56%
    17:00 +33°C° 0 mm 4 m/S 756 mmHg 52%
    18:00 +32°C° 0 mm 5 m/S 756 mmHg 56%
    19:00 +30°C° 0 mm 5 m/S 756 mmHg 60%
    20:00 +29°C° 0 mm 5 m/S 757 mmHg 64%
    21:00 +29°C° 0 mm 4 m/S 757 mmHg 68%
    22:00 +28°C° 0 mm 4 m/S 757 mmHg 71%
    23:00 +28°C° 0 mm 4 m/S 758 mmHg 75%

    Morgen, 22 März, Freitag

    Zeit Temperatur Niederschläge Wind Luftdruck Luftfeuchtigkeit
    00:00 +28°C° 0 mm 3 m/S 758 mmHg 76%
    01:00 +28°C° 0 mm 3 m/S 758 mmHg 76%
    02:00 +27°C° 0 mm 3 m/S 758 mmHg 77%
    03:00 +27°C° 0 mm 2 m/S 758 mmHg 77%
    04:00 +27°C° 0 mm 2 m/S 758 mmHg 78%
    05:00 +27°C° 0 mm 1 m/S 758 mmHg 78%
    06:00 +27°C° 0.1 mm 1 m/S 758 mmHg 78%
    07:00 +27°C° 0.1 mm 1 m/S 758 mmHg 79%
    08:00 +27°C° 0.1 mm 1 m/S 759 mmHg 79%
    09:00 +28°C° 0.5 mm 1 m/S 759 mmHg 75%
    10:00 +29°C° 0.5 mm 1 m/S 759 mmHg 70%
    11:00 +29°C° 0.5 mm 1 m/S 759 mmHg 66%
    12:00 +30°C° 0.8 mm 1 m/S 759 mmHg 64%
    13:00 +30°C° 0.8 mm 1 m/S 759 mmHg 62%
    14:00 +31°C° 0.8 mm 1 m/S 758 mmHg 60%
    15:00 +31°C° 2.7 mm 2 m/S 758 mmHg 61%
    16:00 +31°C° 2.7 mm 2 m/S 757 mmHg 61%
    17:00 +30°C° 2.7 mm 2 m/S 757 mmHg 61%
    18:00 +30°C° 3.4 mm 2 m/S 757 mmHg 64%
    19:00 +29°C° 3.4 mm 2 m/S 758 mmHg 66%
    20:00 +29°C° 3.4 mm 2 m/S 758 mmHg 69%
    21:00 +29°C° 2.3 mm 1 m/S 759 mmHg 69%
    22:00 +28°C° 2.3 mm 1 m/S 760 mmHg 70%
    23:00 +28°C° 2.3 mm 1 m/S 760 mmHg 71%

    übermorgen, 23 März, Samstag

    Zeit Temperatur Niederschläge Wind Luftdruck Luftfeuchtigkeit
    00:00 +28°C° 1 mm 2 m/S 760 mmHg 71%
    01:00 +27°C° 1 mm 3 m/S 760 mmHg 71%
    02:00 +27°C° 1 mm 3 m/S 760 mmHg 71%
    03:00 +26°C° 0.3 mm 4 m/S 760 mmHg 71%
    04:00 +26°C° 0.3 mm 4 m/S 760 mmHg 71%
    05:00 +25°C° 0.3 mm 4 m/S 760 mmHg 71%
    06:00 +25°C° 0.2 mm 4 m/S 761 mmHg 70%
    07:00 +23°C° 0.2 mm 4 m/S 762 mmHg 70%
    08:00 +23°C° 0.2 mm 4 m/S 763 mmHg 70%
    09:00 +22°C° 0.3 mm 4 m/S 763 mmHg 69%
    10:00 +22°C° 0.3 mm 4 m/S 764 mmHg 68%
    11:00 +22°C° 0.3 mm 4 m/S 764 mmHg 67%
    12:00 +22°C° 0.5 mm 3 m/S 764 mmHg 67%
    13:00 +22°C° 0.5 mm 3 m/S 763 mmHg 67%
    14:00 +22°C° 0.5 mm 3 m/S 763 mmHg 67%
    15:00 +22°C° 0.3 mm 3 m/S 762 mmHg 67%
    16:00 +21°C° 0.3 mm 3 m/S 762 mmHg 68%
    17:00 +21°C° 0.3 mm 3 m/S 762 mmHg 69%
    18:00 +21°C° 0.3 mm 3 m/S 762 mmHg 69%
    19:00 +21°C° 0.3 mm 3 m/S 763 mmHg 70%
    20:00 +21°C° 0.3 mm 3 m/S 763 mmHg 70%
    21:00 +21°C° 0.1 mm 3 m/S 764 mmHg 71%
    22:00 +20°C° 0.1 mm 3 m/S 764 mmHg 71%
    23:00 +20°C° 0.1 mm 3 m/S 765 mmHg 71%

    24 März, Sonntag

    Zeit Temperatur Niederschläge Wind Luftdruck Luftfeuchtigkeit
    00:00 +20°C° 0.3 mm 3 m/S 764 mmHg 72%
    01:00 +20°C° 0.3 mm 3 m/S 764 mmHg 73%
    02:00 +19°C° 0.3 mm 2 m/S 763 mmHg 73%
    03:00 +19°C° 0.1 mm 2 m/S 763 mmHg 73%
    04:00 +19°C° 0.1 mm 3 m/S 763 mmHg 73%
    05:00 +19°C° 0.1 mm 3 m/S 762 mmHg 73%
    06:00 +19°C° 0 mm 2 m/S 763 mmHg 73%
    07:00 +19°C° 0 mm 2 m/S 763 mmHg 72%
    08:00 +20°C° 0 mm 2 m/S 764 mmHg 71%
    09:00 +21°C° 0 mm 1 m/S 764 mmHg 70%
    10:00 +22°C° 0 mm 1 m/S 764 mmHg 68%
    11:00 +22°C° 0 mm 1 m/S 764 mmHg 66%
    12:00 +23°C° 0 mm 2 m/S 763 mmHg 63%
    13:00 +24°C° 0 mm 3 m/S 763 mmHg 60%
    14:00 +25°C° 0 mm 3 m/S 762 mmHg 57%
    15:00 +25°C° 0 mm 3 m/S 761 mmHg 58%
    16:00 +26°C° 0 mm 3 m/S 761 mmHg 59%
    17:00 +26°C° 0 mm 3 m/S 761 mmHg 61%
    18:00 +26°C° 0.3 mm 3 m/S 761 mmHg 63%
    19:00 +25°C° 0.3 mm 3 m/S 761 mmHg 65%
    20:00 +25°C° 0.3 mm 4 m/S 762 mmHg 68%
    21:00 +25°C° 0.1 mm 3 m/S 762 mmHg 69%
    22:00 +25°C° 0.1 mm 3 m/S 762 mmHg 70%
    23:00 +25°C° 0.1 mm 3 m/S 762 mmHg 71%

    25 März, Montag

    Zeit Temperatur Niederschläge Wind Luftdruck Luftfeuchtigkeit
    00:00 +24°C° 0 mm 3 m/S 762 mmHg 72%
    01:00 +24°C° 0 mm 3 m/S 761 mmHg 72%
    02:00 +24°C° 0 mm 3 m/S 761 mmHg 73%
    03:00 +24°C° 0 mm 3 m/S 760 mmHg 74%
    04:00 +24°C° 0 mm 3 m/S 760 mmHg 75%
    05:00 +24°C° 0 mm 3 m/S 760 mmHg 75%
    06:00 +24°C° 0.1 mm 2 m/S 760 mmHg 76%
    07:00 +24°C° 0.1 mm 1 m/S 761 mmHg 76%
    08:00 +24°C° 0.1 mm 1 m/S 761 mmHg 76%
    09:00 +24°C° 0.9 mm 1 m/S 762 mmHg 76%
    10:00 +23°C° 0.9 mm 0 m/S 762 mmHg 76%
    11:00 +23°C° 0.9 mm 0 m/S 763 mmHg 76%
    12:00 +25°C° 1.2 mm 1 m/S 762 mmHg 75%
    13:00 +25°C° 1.2 mm 1 m/S 761 mmHg 75%
    14:00 +26°C° 1.2 mm 2 m/S 760 mmHg 74%
    15:00 +26°C° 0.1 mm 2 m/S 760 mmHg 72%
    16:00 +27°C° 0.1 mm 2 m/S 760 mmHg 71%
    17:00 +27°C° 0.1 mm 3 m/S 760 mmHg 69%
    18:00 +27°C° 0.9 mm 2 m/S 761 mmHg 71%
    19:00 +26°C° 0.9 mm 2 m/S 761 mmHg 73%
    20:00 +26°C° 0.9 mm 2 m/S 762 mmHg 75%
    21:00 +25°C° 0.1 mm 2 m/S 762 mmHg 76%
    22:00 +25°C° 0.1 mm 2 m/S 762 mmHg 76%
    23:00 +25°C° 0.1 mm 2 m/S 763 mmHg 76%

    26 März, Dienstag

    Zeit Temperatur Niederschläge Wind Luftdruck Luftfeuchtigkeit
    00:00 +25°C° 0 mm 2 m/S 762 mmHg 76%
    01:00 +24°C° 0 mm 2 m/S 762 mmHg 76%
    02:00 +24°C° 0 mm 2 m/S 761 mmHg 76%
    03:00 +24°C° 0 mm 2 m/S 761 mmHg 76%
    04:00 +23°C° 0 mm 2 m/S 761 mmHg 76%
    05:00 +23°C° 0 mm 2 m/S 761 mmHg 75%
    06:00 +23°C° 0 mm 2 m/S 762 mmHg 74%
    07:00 +23°C° 0 mm 2 m/S 763 mmHg 73%
    08:00 +23°C° 0 mm 2 m/S 763 mmHg 72%
    09:00 +24°C° 0 mm 1 m/S 763 mmHg 70%
    10:00 +24°C° 0 mm 1 m/S 763 mmHg 68%
    11:00 +25°C° 0 mm 1 m/S 764 mmHg 66%
    12:00 +26°C° 0 mm 1 m/S 763 mmHg 61%
    13:00 +28°C° 0 mm 1 m/S 762 mmHg 56%
    14:00 +30°C° 0 mm 1 m/S 762 mmHg 52%
    15:00 +30°C° 0 mm 1 m/S 761 mmHg 50%
    16:00 +31°C° 0 mm 2 m/S 761 mmHg 49%
    17:00 +31°C° 0 mm 2 m/S 761 mmHg 48%
    18:00 +31°C° 0 mm 2 m/S 761 mmHg 51%
    19:00 +30°C° 0 mm 3 m/S 761 mmHg 54%
    20:00 +30°C° 0 mm 3 m/S 762 mmHg 57%
    21:00 +29°C° 0 mm 4 m/S 762 mmHg 61%
    22:00 +28°C° 0 mm 4 m/S 762 mmHg 65%
    23:00 +27°C° 0 mm 4 m/S 762 mmHg 68%
    Mehr zeigen